KJ7AZ-3 Weather Reports


Display with metric or nautical units.
time (UTC)temp
F
wind
direction
speed
MPH
gust
MPH
rain 1hr
in
rain 24hr
in
rain mn
in
humidity
%
barometer
mb
20260505030841 66 256 5.0 4.0 0.00 0.00 0.00
20260505023842 65 298 1.0 0.0 0.00 0.00 0.00
20260505022343 66 245 4.0 3.0 0.00 0.00 0.00
20260505020843 66 314 6.0 5.0 0.00 0.00 0.00
20260505015344 66 300 4.0 4.0 0.00 0.00 0.00
20260505013845 66 260 5.0 4.0 0.00 0.00 0.00
20260505012345 66 309 6.0 8.0 0.00 0.00 0.00
20260505010846 68 295 6.0 7.0 0.00 0.00 0.00
20260505005346 68 298 7.0 9.0 0.00 0.00 0.00
20260505003847 70 330 9.0 6.0 0.00 0.00 0.00
20260505002347 70 293 9.0 10.0 0.00 0.00 0.00
20260505000848 72 291 8.0 5.0 0.00 0.00 0.00
20260504235348 71 287 9.0 13.0 0.00 0.00 0.00
20260504233849 72 325 7.0 4.0 0.00 0.00 0.00
20260504232349 74 318 8.0 8.0 0.00 0.00 0.00
20260504230850 73 274 6.0 13.0 0.00 0.00 0.00
20260504225350 74 304 10.0 7.0 0.00 0.00 0.00
20260504223851 76 305 7.0 2.0 0.00 0.00 0.00
20260504222351 73 314 10.0 10.0 0.00 0.00 0.00
20260504220851 74 284 9.0 8.0 0.00 0.00 0.00
20260504215352 75 285 7.0 7.0 0.00 0.00 0.00
20260504213852 75 280 10.0 12.0 0.00 0.00 0.00
20260504212353 73 328 8.0 5.0 0.00 0.00 0.00
20260504210853 73 290 9.0 10.0 0.00 0.00 0.00
20260504205354 72 287 6.0 5.0 0.00 0.00 0.00
20260504202357 73 280 7.0 10.0 0.00 0.00 0.00
20260504200856 73 294 6.0 6.0 0.00 0.00 0.00
20260504195357 71 300 8.0 8.0 0.00 0.00 0.00
20260504193858 72 328 6.0 7.0 0.00 0.00 0.00
20260504192358 70 302 8.0 6.0 0.00 0.00 0.00
20260504190859 70 283 7.0 3.0 0.00 0.00 0.00
20260504185401 70 262 5.0 6.0 0.00 0.00 0.00
20260504183901 68 297 4.0 3.0 0.00 0.00 0.00
20260504182404 69 290 6.0 2.0 0.00 0.00 0.00
20260504180903 70 347 5.0 6.0 0.00 0.00 0.00
20260504175403 69 281 7.0 10.0 0.00 0.00 0.00
20260504173904 69 305 4.0 4.0 0.00 0.00 0.00
20260504170905 69 283 7.0 9.0 0.00 0.00 0.00
20260504150913 60 333 1.0 3.0 0.00 0.00 0.00
20260504140917 59 236 0.0 0.0 0.00 0.00 0.00
20260504080949 49 179 0.0 0.0 0.00 0.00 0.00
20260504045504 48 179 0.0 0.0 0.00 0.01 0.00
20260504044005 48 179 0.0 0.0 0.00 0.01 0.00
20260504042506 50 179 0.0 0.0 0.00 0.01 0.00
20260504041007 50 179 0.0 0.0 0.00 0.01 0.00
20260504035508 50 179 0.0 0.0 0.00 0.01 0.00
20260504034010 51 179 0.0 0.0 0.00 0.01 0.00
20260504032511 50 329 0.0 0.0 0.00 0.01 0.00